Home   Weather   Horsham   Past weeks

Flag for United Kingdom Past Weather in Horsham, England, United Kingdom — Yesterday and Last 2 Weeks

Now
21 °F

Clear.


Feels Like: 14 °F
Forecast: 20 / 36 °F
Wind: 6 mph from East

Location: London / Gatwick Airport

Current Time: Jan 21, 2017 at 6:41:34 am

Latest Report: Jan 21, 2017 at 5:50 am


Visibility: 10 mi

Pressure: 30.36 "Hg

Humidity: 93%

Dew Point: 19 °F

Location of HorshamLocation

Past Weather in Horsham — Graph

°F

Horsham Temperature Yesterday

Maximum temperature yesterday: 43 °F (at 12:50 pm)
Minimum temperature yesterday: 23 °F (at 3:50 am)
Average temperature yesterday: 32 °F

High & Low Weather Summary for the Past Weeks

 TemperatureHumidityPressure
High52 °F (Jan 7, 12:20 pm)100% (Jan 6, 5:20 am)30.69 "Hg (Jan 6, 5:20 am)
Low21 °F (Jan 18, 5:50 am)49% (Jan 17, 2:20 pm)29.27 "Hg (Jan 12, 5:50 pm)
Average39 °F88%30.25 "Hg
* Reported Jan 6 5:20 am — Jan 21 5:20 am, Horsham, Weather by CustomWeather, © 2017

Note: Actual official high and low records may vary slightly from our data, if they occured in-between our weather recording intervals... More about our weather records

Advertising

Horsham Weather History for the Previous 24 Hours

Scroll right to see more
 ConditionsComfort  
Time TempWeatherWind HumidityBarometerVisibility
5:20 am
Sat, Jan 21
21 °FClear.3 mph100%30.36 "Hg10 mi
4:50 am21 °FClear.No wind100%30.39 "Hg10 mi
4:20 am21 °FClear.No wind93%30.39 "Hg6 mi
3:50 am21 °FClear.3 mph100%30.39 "Hg10 mi
3:20 am23 °FClear.No wind93%30.39 "Hg10 mi
2:50 am23 °FClear.2 mph93%30.39 "Hg10 mi
2:20 am25 °FClear.No wind93%30.42 "Hg10 mi
1:50 am25 °FClear.No wind86%30.42 "Hg10 mi
1:20 am25 °FClear.6 mph93%30.42 "Hg10 mi
12:50 am27 °FClear.5 mph86%30.42 "Hg10 mi
12:20 am27 °FClear.5 mph86%30.42 "Hg10 mi
11:50 pm
Fri, Jan 20
27 °FClear.6 mph86%30.42 "Hg10 mi
11:20 pm27 °FClear.3 mph93%30.42 "Hg10 mi
10:50 pm27 °FClear.3 mph86%30.42 "Hg10 mi
10:20 pm28 °FClear.3 mph80%30.42 "Hg10 mi
9:50 pm28 °FClear.3 mph86%30.42 "Hg10 mi
9:20 pm32 °FClear.3 mph75%30.42 "Hg10 mi
8:50 pm32 °FClear.5 mph75%30.42 "Hg10 mi
7:50 pm32 °FClear.5 mph75%30.45 "Hg10 mi
7:20 pm32 °FClear.5 mph75%30.42 "Hg10 mi
6:50 pm34 °FClear.6 mph70%30.42 "Hg10 mi
6:20 pm36 °FClear.5 mph70%30.42 "Hg10 mi
5:50 pm37 °FClear.8 mph65%30.42 "Hg10 mi
5:20 pm37 °FClear.8 mph60%30.45 "Hg10 mi
4:50 pm37 °FClear.8 mph60%30.45 "Hg10 mi
4:20 pm39 °FSunny.8 mph56%30.45 "Hg10 mi
3:50 pm39 °FSunny.9 mph56%30.45 "Hg10 mi
3:20 pm41 °FSunny.12 mph53%30.45 "Hg10 mi
2:50 pm43 °FSunny.10 mph53%30.45 "Hg10 mi
2:20 pm43 °FSunny.10 mph53%30.45 "Hg10 mi
1:50 pm43 °FSunny.13 mph49%30.45 "Hg10 mi
1:20 pm43 °FSunny.14 mph49%30.45 "Hg10 mi
12:50 pm43 °FSunny.12 mph49%30.48 "Hg10 mi
12:20 pm41 °FSunny.10 mph57%30.48 "Hg10 mi
11:50 am41 °FSunny.10 mph66%30.48 "Hg10 mi
11:20 am39 °FSunny.6 mph70%30.51 "Hg10 mi
10:50 am37 °FSunny.7 mph75%30.51 "Hg10 mi
10:20 am36 °FPassing clouds.5 mph75%30.51 "HgN/A
9:50 am34 °FSunny.2 mph81%30.51 "Hg10 mi
9:20 am28 °FSunny.No wind93%30.51 "Hg10 mi
8:50 am25 °FSunny.No wind93%30.51 "Hg10 mi
8:20 am25 °FSunny.No wind86%30.51 "Hg10 mi
7:50 am23 °FClear.No wind93%30.51 "Hg10 mi
7:20 am23 °FClear.No wind93%30.51 "Hg10 mi
6:50 am27 °FClear.3 mph86%30.51 "Hg10 mi
6:20 am23 °FClear.No wind93%30.51 "Hg10 mi
Weather by CustomWeather, © 2017

See weather overviewHow to use our weather pages